www.pogodaiklimat.ru

Погода и климат >> Архив погоды >> Иран >> Omidieh


ПОГОДА в Omidieh

  • Прогноз погоды в Omidieh
  • Монитор погоды в Omidieh
  • Климат города

АРХИВ ПОГОДЫ в Omidieh

Время (UTC), дата Ветер
(напр.,м/с)
 
Видим.   Явления Облачность Т
(С)
Тd
(С)
f
(%)
Тe
(С)
Тes
(С)
Комфортность P
(гПа)
Po
(гПа)
Тmin
(С)
Tmax
(С)
R
(мм)
R24
(мм)
S
(см)
12 18.09 Ю 6 5000 м мгла ясно +40.9 +20.4 31 +47 +49 опасность
перегрева
1004.0 1001.0
15 18.09 Ю 5 4000 м мгла ясно +36.2 +25.3 54 +50 +50 опасность
перегрева
1004.5 1001.5 +40.8
18 18.09 ЮВ 6 5000 м мгла ясно +33.5 +26.4 66 +50 +50 опасность
перегрева
1006.9 1003.9
21 18.09 Ю 3 5000 м мгла ясно +32.2 +22.7 57 +42 +42 опасность
перегрева
1006.5 1003.5
00 19.09 СВ 3 6000 м мгла ясно +30.9 +23.6 65 +42 +42 опасность
перегрева
1006.4 1003.4
03 19.09 С 3 6000 м мгла ясно +28.6 +22.0 68 +37 +37 очень
душно
1006.4 1003.4 +28.6
06 19.09 Ю 3 7000 м мгла ясно +38.3 +18.0 31 +42 +50 опасность
перегрева
1007.8 1004.8
09 19.09 З 4 8000 м мгла ясно +42.8 +17.0 23 +45 +56 опасность
перегрева
1006.2 1003.2
12 19.09 З 3 10 км ясно +42.7 +19.9 27 +47 +53 опасность
перегрева
1004.5 1001.5
15 19.09 ЮЗ 5 8000 м мгла ясно +38.8 +20.8 35 +45 +45 опасность
перегрева
1004.8 1001.8 +43.4
18 19.09 Ю 3 6000 м мгла ясно +34.2 +23.0 52 +44 +44 опасность
перегрева
1006.6 1003.6
21 19.09 ЮВ 2 5000 м мгла ясно +31.1 +24.7 69 +44 +44 опасность
перегрева
1005.3 1002.3
00 20.09 штиль 0 5000 м мгла ясно +30.2 +26.0 78 +45 +45 опасность
перегрева
1004.8 1001.8
03 20.09 С 4 4000 м мгла ясно +29.5 +23.8 71 +40 +40 очень
душно
1006.2 1003.2 +28.9
06 20.09 СЗ 3 8000 м мгла ясно +36.3 +21.7 43 +44 +52 опасность
перегрева
1007.2 1004.2
09 20.09 СЗ 6 10 км ясно +41.6 +17.0 24 +44 +50 опасность
перегрева
1006.0 1003.0
12 20.09 СЗ 7 10 км ясно +44.9 +11.8 14 +44 +46 опасность
перегрева
1003.7 1000.7
15 20.09 СЗ 7 10 км ясно +40.6 +10.3 16 +39 +39 очень
жарко
1003.4 1000.4 +44.9
18 20.09 С 5 8000 м мгла ясно +34.8 +10.8 23 +34 +34 очень
жарко
1004.9 1001.9
21 20.09 СЗ 4 10 км ясно +32.3 +7.3 21 +31 +31 жарко 1004.4 1001.0
00 21.09 СЗ 3 10 км ясно +29.2 +7.0 25 +28 +28 жарко 1004.0 1001.0
03 21.09 ЮВ 3 8000 м мгла ясно +26.6 +8.9 33 +27 +27 жарко 1005.7 1002.7 +26.6
06 21.09 штиль 0 10 км ясно +38.5 +12.1 21 +38 +50 очень
жарко
1007.1 1004.1
09 21.09 СЗ 7 10 км ясно +44.3 +6.6 11 +42 +46 опасность
перегрева
1006.8 1003.8
12 21.09 С 11 10 км ясно +45.0 -0.8 6 +41 +41 опасность
перегрева
1005.1 1002.2
15 21.09 С 5 10 км ясно +39.0 +4.5 12 +36 +36 очень
жарко
1005.2 1002.2 +45.2
18 21.09 С 5 10 км ясно +31.9 +3.2 16 +29 +29 жарко 1006.0 1003.0
21 21.09 СЗ 2 10 км ясно +28.3 +2.3 19 +26 +26 жарко 1005.6 1002.7
00 22.09 Ю 3 10 км ясно +25.2 +9.9 38 +24 +24 комфорт 1005.5 1002.6
03 22.09 ЮВ 3 5000 м мгла ясно +28.5 +18.1 53 +33 +33 очень
душно
1006.9 1004.0 +25.2
06 22.09 ЮВ 5 5000 м мгла ясно +36.7 +19.1 36 +42 +46 опасность
перегрева
1008.5 1005.5
09 22.09 СЗ 6 7000 м мгла ясно +42.4 +15.2 21 +44 +50 опасность
перегрева
1007.9 1004.9
12 22.09 СЗ 10 10 км ясно +45.2 +7.2 10 +43 +43 опасность
перегрева
1005.6 1002.7
15 22.09 СЗ 5 10 км 1/1 1200 м
[Sc]
+40.1 +5.2 12 +37 +37 очень
жарко
1006.2 1003.2 +45.4
18 22.09 С 5 10 км ясно +33.3 +5.9 18 +31 +31 жарко 1007.7 1004.7
21 22.09 С 4 10 км ясно +35.9 +5.8 16 +33 +33 жарко 1007.3 1003.8
00 23.09 Ю 4 10 км ясно +28.7 +5.9 24 +28 +28 жарко 1006.5 1003.5
03 23.09 Ю 5 10 км ясно +26.5 +7.9 31 +26 +26 жарко 1007.1 1004.1 +26.5
06 23.09 ЮВ 2 8000 м мгла ясно +37.3 +15.0 27 +39 +48 очень
душно
1009.8 1006.8
09 23.09 СЗ 5 10 км ясно +43.3 +11.4 15 +42 +50 опасность
перегрева
1008.7 1005.7
12 23.09 СЗ 7 10 км ясно +45.0 +5.8 10 +42 +44 опасность
перегрева
1006.7 1003.7
15 23.09 З 4 10 км ясно +40.0 +6.5 13 +37 +37 очень
жарко
1006.3 1003.3 +45.3
18 23.09 ЮВ 2 10 км ясно +33.4 +8.7 22 +32 +32 жарко 1007.7 1004.7
21 23.09 штиль 0 10 км ясно +30.3 +12.0 32 +31 +31 жарко 1007.7 1004.7
00 24.09 С 2 10 км ясно +27.8 +6.2 25 +27 +27 жарко 1007.4 1004.4
03 24.09 С 4 10 км ясно +27.0 +4.1 23 +26 +26 жарко 1007.8 1004.8 +25.5
06 24.09 СЗ 4 10 км ясно +36.6 +3.4 13 +34 +40 очень
жарко
1009.4 1006.4
09 24.09 СЗ 6 10 км ясно +41.2 -1.6 7 +37 +43 очень
жарко
1008.6 1005.6
12 24.09 СЗ 11 8000 м пыльный позёмок ясно +42.0 -2.5 6 +38 +38 очень
жарко
1006.9 1003.9
15 24.09 СЗ 7 2000 м пыльный позёмок ясно +37.7 +2.9 12 +35 +35 очень
жарко
1006.7 1003.7 +42.4
18 24.09 С 6 7000 м пыльный позёмок ясно +33.0 +2.9 15 +30 +30 жарко 1007.8 1004.8
21 24.09 СЗ 2 10 км ясно +26.2 +2.2 21 +25 +25 комфорт 1004.1
00 25.09 СВ 2 10 км ясно +26.3 +4.1 24 +25 +25 комфорт 1006.1 1003.1
03 25.09 Ю 2 8000 м мгла ясно +23.0 +2.9 27 +23 +23 комфорт 1007.0 1003.9 +22.8
06 25.09 Ю 2 10 км ясно +33.8 +3.5 15 +31 +40 жарко 1008.0 1005.0

 

Местоположение метеостанции Omidieh (Иран): широта 30.77 долгота 49.67 высота над уровнем моря 27 м.

В архиве по умолчанию представлена погода в Omidieh за последнюю неделю. Архивные данные за месяц целиком и за предыдущие месяцы, начиная с января 2011 года, Вы можете получить, выбрав интересующий диапазон дат из раскрывающегося списка и нажав кнопку "Ввод!".


*Определитесь, кто Вы:
робот инопланетянин человек

Внимание! Время в таблицах - всемирное. Для получения местного времени необходимо прибавить поправку, которая в Omidieh равна 3.5 ч.

Смотрите также архив погоды в соседних городах и на ближайших метеорологических станциях:

Погода в Gach Saran (Иран) (112 км)
Погода в Ahwaz (Иран) (114 км)
Погода в Masjed-Soleyman (Иран) (140 км)
Погода в Fao (Ирак) (143 км)
Погода в Abadan (Иран) (143 км)
Погода в Bubiyan (Кувейт) (167 км)
Погода в Khark (Иран) (179 км)
Погода в Basrah (Ирак) (182 км)
Погода в Yasuj (Иран) (183 км)
Погода в Basrah Airport (Ирак) (183 км)

Пояснения к столбцам:

Ветер - указаны скорость ветра в м/с - средняя за 10 мин, порывы в срок и между сроками (в фигурных скобках) и направление, откуда дует ветер: С - северный, СВ - северо-восточный, В - восточный, ЮВ - юго-восточный, Ю - южный, ЮЗ - юго-западный, З - западный, СЗ - северо-западный.
Видимость - горизонтальная дальность видимости в метрах или километрах. При видимости от 1 до 10 км при отсутствии осадков обычно наблюдается дымка, при ухудшении видимости до 1 км и менее - туман. В сухую погоду видимость может ухудшаться дымом, пылью или мглою.
Явления - указаны атмосферные явления, наблюдавшиеся в срок или в последний час перед сроком; фигурными скобками обозначены явления, наблюдавшиеся между сроками (за 1-3 часа до срока); квадратными скобками обозначены град или гололедные отложения с указанием их диаметра в мм.
Облачность - указаны через наклонную черту общая и нижняя облачность в баллах и высота нижней границы облаков в метрах; квадратными скобками обозначены формы облаков: Ci - перистые, Cs - перисто-слоистые, Cc - перисто-кучевые, Ac - высококучевые, As - высокослоистые, Sc - слоисто-кучевые, Ns - слоисто-дождевые, Cu - кучевые, Cb - кучево-дождевые. Подробнее классификацию облаков см. в Атласе облаков (PDF).
T - Температура воздуха - температура, измеренная на высоте 2 м над землей.
Td - Температура точки росы - температура, при понижении до которой содержащийся в воздухе водяной пар достигнет насыщения.
f - Относительная влажность воздуха - влажноcть воздуха, измеренная на высоте 2 м над землей.
Te - Эффективная температура - температура, которую ощущает одетый по сезону человек в тени. Характеристика душности погоды. При расчете учитывается влияние влажности воздуха и скорости ветра на теплоощущения человека.
Tes - Эффективная температура на солнце - температура, которую ощущает человек, с поправкой на солнечный нагрев. Характеристика знойности погоды. Зависит от высоты солнца над горизонтом, облачности и скорости ветра. Ночью, в пасмурную погоду, а также при ветре 12 м/с и более поправка равна нулю.
P - Атмосферное давление - приведенное к уровню моря атмосферное давление.
Po - Атмосферное давление - измеренное на уровне метеостанции атмосферное давление.
Tmin - Минимальная температура - минимум температуры воздуха на высоте 2 м над землей.
Tmax - Максимальная температура - максимум температуры воздуха на высоте 2 м над землей.
R - Количество осадков - Количество выпавших осадков за период времени, мм. При наведении курсора мыши на число - период времени, за который выпало указанное количество осадков.
R24 - Количество осадков - Количество выпавших осадков за 24 часа, мм.
S - Снежный покров - Высота снежного покрова, см. При наведении курсора мыши на число - состояние снежного покрова и степень покрытия местности в баллах.